K4FB Weather Reports


time (UTC)temp
C
wind
direction
speed
KPH
gust
KPH
rain 1hr
cm
rain 24hr
cm
rain mn
cm
humidity
%
barometer
mb
20260506215506 38 142 1.6 8.0 0.00 0.00 0.00 32 1015.5
20260506215002 38 107 4.8 9.7 0.00 0.00 0.00 32 1015.5
20260506214518 38 135 1.6 9.7 0.00 0.00 0.00 33 1015.5
20260506214007 38 148 1.6 12.9 0.00 0.00 0.00 33 1015.5
20260506213503 38 154 6.4 12.9 0.00 0.00 0.00 32 1015.5
20260506213013 38 200 4.8 9.7 0.00 0.00 0.00 32 1015.6
20260506212004 37 225 3.2 14.5 0.00 0.00 0.00 32 1015.6
20260506211510 37 204 1.6 16.1 0.00 0.00 0.00 36 1015.6
20260506210505 37 220 4.8 19.3 0.00 0.00 0.00 32 1015.5
20260506210008 37 192 8.0 19.3 0.00 0.00 0.00 34 1015.4
20260506205003 37 213 8.0 16.1 0.00 0.00 0.00 36 1015.5
20260506204515 37 233 8.0 22.5 0.00 0.00 0.00 38 1015.5
20260506204003 37 209 11.3 22.5 0.00 0.00 0.00 34 1015.5
20260506203502 37 215 4.8 12.9 0.00 0.00 0.00 35 1015.6
20260506203015 37 329 3.2 11.3 0.00 0.00 0.00 35 1015.6
20260506202503 37 305 1.6 12.9 0.00 0.00 0.00 37 1015.7
20260506202007 37 265 6.4 16.1 0.00 0.00 0.00 38 1015.8
20260506201515 37 207 1.6 16.1 0.00 0.00 0.00 38 1015.7
20260506201003 37 215 6.4 12.9 0.00 0.00 0.00 42 1015.7
20260506200502 36 169 6.4 16.1 0.00 0.00 0.00 40 1015.8
20260506200015 36 182 3.2 16.1 0.00 0.00 0.00 37 1015.8
20260506195007 36 188 11.3 19.3 0.00 0.00 0.00 36 1015.7
20260506194514 37 192 4.8 19.3 0.00 0.00 0.00 41 1015.7
20260506193506 36 216 3.2 17.7 0.00 0.00 0.00 41 1016.0
20260506193012 37 213 9.7 17.7 0.00 0.00 0.00 41 1016.1
20260506192506 36 235 6.4 14.5 0.00 0.00 0.00 42 1016.1
20260506192006 36 233 3.2 17.7 0.00 0.00 0.00 41 1016.1
20260506191514 36 191 9.7 17.7 0.00 0.00 0.00 40 1016.2
20260506191006 36 235 4.8 14.5 0.00 0.00 0.00 43 1016.3
20260506190506 36 225 6.4 16.1 0.00 0.00 0.00 44 1016.4
20260506190008 35 110 3.2 16.1 0.00 0.00 0.00 43 1016.5
20260506185009 35 188 9.7 17.7 0.00 0.00 0.00 44 1016.6
20260506184522 35 224 9.7 17.7 0.00 0.00 0.00 45 1016.7
20260506184007 35 322 0.0 19.3 0.00 0.00 0.00 42 1016.8
20260506181007 35 185 6.4 9.7 0.00 0.00 0.00 47 1017.0
20260506180506 34 297 3.2 17.7 0.00 0.00 0.00 48 1017.1
20260506180016 34 52 4.8 17.7 0.00 0.00 0.00 49 1017.2
20260506175506 34 215 3.2 14.5 0.00 0.00 0.00 49 1017.2
20260506175006 34 229 4.8 19.3 0.00 0.00 0.00 51 1017.3
20260506174513 34 196 11.3 19.3 0.00 0.00 0.00 46 1017.3
20260506174007 33 216 3.2 19.3 0.00 0.00 0.00 49 1017.4
20260506173510 34 196 9.7 22.5 0.00 0.00 0.00 47 1017.5
20260506173009 33 173 6.4 22.5 0.00 0.00 0.00 50 1017.5
20260506172503 33 298 6.4 14.5 0.00 0.00 0.00 53 1017.5
20260506171507 33 189 4.8 17.7 0.00 0.00 0.00 50 1017.7
20260506171003 32 189 4.8 20.9 0.00 0.00 0.00 52 1017.7
20260506170512 32 215 8.0 20.9 0.00 0.00 0.00 48 1017.7
20260506170009 32 104 3.2 17.7 0.00 0.00 0.00 50 1017.8
20260506165503 32 163 6.4 17.7 0.00 0.00 0.00 52 1017.8
20260506165005 32 113 4.8 20.9 0.00 0.00 0.00 55 1018.0
20260506164512 32 215 6.4 20.9 0.00 0.00 0.00 56 1018.0
20260506164002 32 185 4.8 17.7 0.00 0.00 0.00 50 1017.9
20260506163014 32 188 6.4 16.1 0.00 0.00 0.00 52 1018.0
20260506162510 32 217 8.0 17.7 0.00 0.00 0.00 52 1018.0
20260506162006 32 236 8.0 17.7 0.00 0.00 0.00 52 1018.0
20260506161515 32 182 6.4 17.7 0.00 0.00 0.00 51 1017.9
20260506160011 31 171 8.0 22.5 0.00 0.00 0.00 56 1018.0
20260506155507 31 176 11.3 19.3 0.00 0.00 0.00 56 1017.9
20260506155007 31 128 0.0 16.1 0.00 0.00 0.00 58 1018.0
20260506154506 31 146 6.4 16.1 0.00 0.00 0.00 55 1018.0
20260506154003 31 142 3.2 16.1 0.00 0.00 0.00 57 1018.0
20260506153503 31 155 6.4 17.7 0.00 0.00 0.00 56 1018.1
20260506153015 31 153 8.0 19.3 0.00 0.00 0.00 57 1018.2
20260506152503 31 206 6.4 19.3 0.00 0.00 0.00 56 1018.2
20260506151516 30 139 9.7 20.9 0.00 0.00 0.00 60 1018.1
20260506151003 30 199 4.8 20.9 0.00 0.00 0.00 59 1018.1
20260506150505 30 160 6.4 17.7 0.00 0.00 0.00 62 1018.1
20260506150022 29 157 4.8 17.7 0.00 0.00 0.00 62 1018.1
20260506145509 29 188 6.4 16.1 0.00 0.00 0.00 63 1018.1
20260506145003 29 188 6.4 14.5 0.00 0.00 0.00 64 1018.1
20260506144535 29 163 4.8 12.9 0.00 0.00 0.00 67 1018.1
20260506144007 28 188 4.8 12.9 0.00 0.00 0.00 69 1018.3
20260506143504 28 176 4.8 11.3 0.00 0.00 0.00 70 1018.2
20260506143013 28 160 3.2 14.5 0.00 0.00 0.00 70 1018.2
20260506142505 28 205 8.0 14.5 0.00 0.00 0.00 71 1018.2
20260506142008 27 175 3.2 11.3 0.00 0.00 0.00 70 1018.3
20260506141512 27 123 6.4 14.5 0.00 0.00 0.00 72 1018.3
20260506141009 27 159 4.8 16.1 0.00 0.00 0.00 72 1018.4
20260506140028 26 190 3.2 17.7 0.00 0.00 0.00 74 1018.2
20260506135504 26 142 6.4 17.7 0.00 0.00 0.00 75 1018.2
20260506134003 25 201 6.4 17.7 0.00 0.00 0.00 80 1018.2
20260506133509 25 62 3.2 14.5 0.00 0.00 0.00 81 1018.3
20260506133020 25 164 6.4 14.5 0.00 0.00 0.00 81 1018.2
20260506132511 24 148 3.2 11.3 0.00 0.00 0.00 83 1018.1
20260506132005 24 123 3.2 11.3 0.00 0.00 0.00 85 1018.1
20260506131523 23 80 4.8 12.9 0.00 0.00 0.00 86 1018.0
20260506130503 22 156 3.2 11.3 0.00 0.00 0.00 89 1018.0
20260506130018 22 165 4.8 11.3 0.00 0.00 0.00 90 1017.9
20260506125506 22 205 3.2 14.5 0.00 0.00 0.00 91 1017.8
20260506125008 21 144 6.4 14.5 0.00 0.00 0.00 91 1017.7
20260506124515 21 130 3.2 12.9 0.00 0.00 0.00 93 1017.7
20260506124008 20 117 4.8 9.7 0.00 0.00 0.00 93 1017.7
20260506123508 20 152 1.6 8.0 0.00 0.00 0.00 94 1017.8
20260506123015 20 140 1.6 4.8 0.00 0.00 0.00 95 1017.7
20260506122507 19 148 1.6 4.8 0.00 0.00 0.00 95 1017.7
20260506122007 19 129 0.0 6.4 0.00 0.00 0.00 96 1017.7
20260506121523 18 167 0.0 6.4 0.00 0.00 0.00 96 1017.6
20260506120507 17 154 0.0 3.2 0.00 0.00 0.00 95 1017.5
20260506120023 17 85 0.0 0.0 0.00 0.00 0.00 94 1017.6
20260506115509 17 85 0.0 0.0 0.00 0.00 0.00 94 1017.5
20260506114521 17 85 0.0 0.0 0.00 0.00 0.00 94 1017.5
20260506114012 17 85 0.0 0.0 0.00 0.00 0.00 94 1017.4
20260506113507 16 85 0.0 0.0 0.00 0.00 0.00 94 1017.4
20260506113020 16 85 0.0 0.0 0.00 0.00 0.00 94 1017.2
20260506112508 16 85 0.0 0.0 0.00 0.00 0.00 94 1017.2
20260506112007 16 85 0.0 0.0 0.00 0.00 0.00 93 1017.1
20260506111518 16 85 0.0 0.0 0.00 0.00 0.00 93 1017.1
20260506111015 16 85 0.0 0.0 0.00 0.00 0.00 93 1017.1
20260506110513 16 85 0.0 0.0 0.00 0.00 0.00 93 1017.2
20260506110014 16 85 0.0 0.0 0.00 0.00 0.00 93 1017.1
20260506104524 16 85 0.0 0.0 0.00 0.00 0.00 92 1016.7
20260506104007 16 85 0.0 0.0 0.00 0.00 0.00 92 1016.7
20260506103025 16 85 0.0 0.0 0.00 0.00 0.00 92 1016.6
20260506102507 16 85 0.0 0.0 0.00 0.00 0.00 92 1016.6
20260506101529 16 85 0.0 0.0 0.00 0.00 0.00 91 1016.7
20260506101012 16 85 0.0 0.0 0.00 0.00 0.00 91 1016.7
20260506100505 16 85 0.0 0.0 0.00 0.00 0.00 91 1016.7
20260506100024 16 85 0.0 0.0 0.00 0.00 0.00 91 1016.7
20260506095510 16 85 0.0 0.0 0.00 0.00 0.00 91 1016.7
20260506095010 16 85 0.0 0.0 0.00 0.00 0.00 91 1016.6
20260506094008 16 85 0.0 0.0 0.00 0.00 0.00 91 1016.6
20260506093509 16 85 0.0 0.0 0.00 0.00 0.00 91 1016.5
20260506093030 16 85 0.0 0.0 0.00 0.00 0.00 91 1016.5
20260506092011 16 85 0.0 0.0 0.00 0.00 0.00 91 1016.4
20260506091524 16 85 0.0 0.0 0.00 0.00 0.00 91 1016.4
20260506091012 16 85 0.0 0.0 0.00 0.00 0.00 91 1016.3
20260506090513 16 85 0.0 0.0 0.00 0.00 0.00 91 1016.4
20260506090029 16 85 0.0 0.0 0.00 0.00 0.00 91 1016.3
20260506085511 16 85 0.0 0.0 0.00 0.00 0.00 91 1016.4
20260506085008 16 85 0.0 0.0 0.00 0.00 0.00 91 1016.3
20260506084536 16 85 0.0 0.0 0.00 0.00 0.00 91 1016.5
20260506084004 16 85 0.0 0.0 0.00 0.00 0.00 91 1016.5
20260506083007 16 85 0.0 0.0 0.00 0.00 0.00 91 1016.5
20260506082508 16 85 0.0 0.0 0.00 0.00 0.00 91 1016.4
20260506082009 16 85 0.0 0.0 0.00 0.00 0.00 91 1016.5
20260506081507 16 85 0.0 0.0 0.00 0.00 0.00 90 1016.7
20260506081003 16 85 0.0 0.0 0.00 0.00 0.00 90 1016.7
20260506080504 16 85 0.0 0.0 0.00 0.00 0.00 89 1016.5
20260506073504 16 85 0.0 0.0 0.00 0.00 0.00 89 1016.5
20260506073018 16 85 0.0 0.0 0.00 0.00 0.00 89 1016.6
20260506072509 16 85 0.0 0.0 0.00 0.00 0.00 89 1016.7
20260506072004 17 85 0.0 0.0 0.00 0.00 0.00 88 1016.7
20260506071517 17 85 0.0 0.0 0.00 0.00 0.00 88 1016.7
20260506071007 17 85 0.0 0.0 0.00 0.00 0.00 88 1016.8
20260506062502 17 85 0.0 0.0 0.00 0.00 0.00 88 1017.1
20260506062008 17 85 0.0 0.0 0.00 0.00 0.00 88 1017.2
20260506061518 17 85 0.0 0.0 0.00 0.00 0.00 88 1017.2
20260506061004 17 85 0.0 0.0 0.00 0.00 0.00 88 1017.2
20260506060505 17 85 0.0 0.0 0.00 0.00 0.00 88 1017.2
20260506051004 17 85 0.0 0.0 0.00 0.00 0.00 84 1017.7
20260506050510 17 85 0.0 0.0 0.00 0.00 0.00 83 1017.7
20260506045004 18 85 0.0 0.0 0.00 0.00 0.00 82 1017.7
20260506044538 18 85 0.0 0.0 0.00 0.00 0.00 81 1017.8
20260506044004 18 85 0.0 0.0 0.00 0.00 0.00 81 1017.8
20260506043508 18 85 0.0 0.0 0.00 0.00 0.00 81 1017.8
20260506043010 18 85 0.0 0.0 0.00 0.00 0.00 81 1017.7
20260506042505 18 85 0.0 0.0 0.00 0.00 0.00 80 1017.6
20260506041514 18 85 0.0 0.0 0.00 0.00 0.00 80 1017.6
20260506041007 18 85 0.0 0.0 0.00 0.00 0.00 79 1017.7
20260506040505 19 85 0.0 0.0 0.00 0.00 0.00 79 1017.6
20260506040016 19 85 0.0 0.0 0.00 0.00 0.00 79 1017.7
20260506035508 19 85 0.0 0.0 0.00 0.00 0.00 79 1017.7
20260506035009 19 85 0.0 0.0 0.00 0.00 0.00 79 1017.7
20260506034511 19 85 0.0 0.0 0.00 0.00 0.00 79 1017.7
20260506034008 19 85 0.0 0.0 0.00 0.00 0.00 78 1017.7
20260506033514 19 85 0.0 0.0 0.00 0.00 0.00 78 1017.6
20260506033010 19 85 0.0 0.0 0.00 0.00 0.00 78 1017.7
20260506032506 19 85 0.0 0.0 0.00 0.00 0.00 78 1017.9
20260506032003 20 85 0.0 0.0 0.00 0.00 0.00 77 1017.8
20260506031523 20 85 0.0 0.0 0.00 0.00 0.00 77 1017.7
20260506031006 20 85 0.0 0.0 0.00 0.00 0.00 77 1017.7
20260506030504 20 85 0.0 0.0 0.00 0.00 0.00 76 1017.6
20260506030018 20 85 0.0 0.0 0.00 0.00 0.00 75 1017.6
20260506025504 20 85 0.0 0.0 0.00 0.00 0.00 75 1017.7
20260506025008 20 85 0.0 0.0 0.00 0.00 0.00 74 1017.8
20260506024529 20 85 0.0 0.0 0.00 0.00 0.00 74 1017.6
20260506024008 21 85 0.0 0.0 0.00 0.00 0.00 73 1017.5
20260506023505 21 85 0.0 0.0 0.00 0.00 0.00 72 1017.4
20260506023020 21 85 0.0 0.0 0.00 0.00 0.00 72 1017.5
20260506022513 21 85 0.0 0.0 0.00 0.00 0.00 71 1017.6
20260506022013 21 85 0.0 0.0 0.00 0.00 0.00 71 1017.5
20260506021516 21 85 0.0 0.0 0.00 0.00 0.00 70 1017.4
20260506020503 22 85 0.0 0.0 0.00 0.00 0.00 68 1017.3
20260506015504 22 85 0.0 0.0 0.00 0.00 0.00 67 1017.2
20260506015010 22 85 0.0 1.6 0.00 0.00 0.00 67 1017.0
20260506014523 22 85 0.0 3.2 0.00 0.00 0.00 67 1017.0
20260506014005 22 85 0.0 4.8 0.00 0.00 0.00 66 1016.9
20260506013510 23 85 1.6 4.8 0.00 0.00 0.00 66 1016.8
20260506013023 23 98 0.0 6.4 0.00 0.00 0.00 66 1016.6
20260506012505 23 115 1.6 11.3 0.00 0.00 0.00 65 1016.5
20260506012010 23 75 3.2 11.3 0.00 0.00 0.00 65 1016.5
20260506011523 23 74 1.6 11.3 0.00 0.00 0.00 64 1016.4
20260506011011 23 109 3.2 11.3 0.00 0.00 0.00 64 1016.3
20260506010511 23 87 3.2 9.7 0.00 0.00 0.00 63 1016.3
20260506010045 23 81 1.6 11.3 0.00 0.00 0.00 63 1016.2
20260506005006 24 94 6.4 14.5 0.00 0.00 0.00 62 1016.0
20260506004515 24 63 4.8 14.5 0.00 0.00 0.00 61 1015.9
20260506004003 25 71 6.4 14.5 0.00 0.00 0.00 61 1016.0
20260506003502 25 121 4.8 19.3 0.00 0.00 0.00 61 1015.9
20260506003005 25 88 11.3 24.1 0.00 0.00 0.00 60 1015.8
20260506002504 25 39 11.3 24.1 0.00 0.00 0.00 61 1015.7
20260506001002 26 94 8.0 16.1 0.00 0.00 0.00 59 1015.5
20260506000505 26 73 8.0 22.5 0.00 0.00 0.00 58 1015.5
20260505235504 27 31 8.0 20.9 0.00 0.00 0.00 56 1015.3
20260505235003 27 90 9.7 19.3 0.00 0.00 0.00 55 1015.2
20260505234506 27 85 6.4 17.7 0.00 0.00 0.00 54 1015.1
20260505234004 27 75 3.2 12.9 0.00 0.00 0.00 54 1015.1
20260505233507 28 74 6.4 14.5 0.00 0.00 0.00 53 1015.0
20260505233008 28 90 6.4 14.5 0.00 0.00 0.00 52 1014.9
20260505232502 28 126 8.0 16.1 0.00 0.00 0.00 51 1015.0
20260505232005 28 148 6.4 17.7 0.00 0.00 0.00 50 1015.0
20260505231507 28 101 8.0 17.7 0.00 0.00 0.00 49 1015.0
20260505231004 29 75 4.8 11.3 0.00 0.00 0.00 49 1015.0
20260505230503 29 77 1.6 11.3 0.00 0.00 0.00 49 1015.0
20260505230024 29 102 3.2 12.9 0.00 0.00 0.00 47 1015.0
20260505225504 30 67 3.2 12.9 0.00 0.00 0.00 48 1015.1
20260505225003 30 77 6.4 11.3 0.00 0.00 0.00 47 1015.1
20260505224003 30 57 3.2 14.5 0.00 0.00 0.00 46 1015.3
20260505223503 30 85 6.4 14.5 0.00 0.00 0.00 45 1015.2
20260505223014 31 76 6.4 12.9 0.00 0.00 0.00 45 1015.2
20260505222508 31 53 4.8 16.1 0.00 0.00 0.00 45 1015.2
20260505222003 31 115 11.3 16.1 0.00 0.00 0.00 45 1015.1
20260505221507 31 53 4.8 12.9 0.00 0.00 0.00 43 1015.1
20260505221004 31 51 6.4 12.9 0.00 0.00 0.00 43 1015.1
20260505220504 31 104 3.2 12.9 0.00 0.00 0.00 45 1015.1
20260505220008 31 86 6.4 14.5 0.00 0.00 0.00 45 1015.1